Location: Newark
(27.9675°N, 86.8869°E)
Time: 07:03:34
(UTC+00:00)

deb Explorer IX - Pass Details

Date: 30 October 2019
Orbit: 546 x 1105 km, 38.8° (Epoch: 17 November)

Event Time Altitude Azimuth Distance (km) Brightness Sun altitude
Rises 04:26:50 0° 281° (W) 2,715 ? 43.1°
Reaches altitude 10° 04:29:22 10° 296° (WNW) 1,855 ? 43.4°
Maximum altitude 04:32:48 23° 351° (N) 1,263 ? 43.7°
Drops below altitude 10° 04:36:31 10° 45° (NE) 2,025 ? 44.1°
Sets 04:39:25 0° 59° (ENE) 3,033 ? 44.4°
